User: anonymous   Login
Location: El Mouella
(16.4949°N, 9.1594°W)
Time: 12:06:54
(UTC+00:00)
Language:

Cosmos 1666 - Orbit

View from above orbital plane
View from above orbital plane
View from above satellite
View from above satellite

Ground track
Ground track

The orbit data is extracted from the following two-line orbital elements,

1 15889U 85058A   20226.74230323 +.00000366 +00000-0 +15842-4 0  9992
2 15889 082.4877 289.9386 0017108 014.0389 346.1317 15.18958508916917
Epoch (UTC): 13 August 2020 17:48:54
Eccentricity: 0.0017108
inclination: 82.4877°
perigee height: 497 km
apogee height: 521 km
right ascension of ascending node: 289.9386°
argument of perigee: 14.0389°
revolutions per day: 15.18958508
mean anomaly at epoch: 346.1317°
orbit number at epoch: 91691

The dashed part of the orbit path shows where the satellite is in the earth's shadow,  

DLR